Home > Weather > Delbrück > Past weeks

Flag for Germany Weather for the Past 2 Weeks in Delbrück, North Rhine-Westphalia, Germany

Now
46 °F

Scattered clouds.


Feels Like: 44 °F
Forecast: 43 / 65 °F
Wind: 5 mph from North

Location: Paderborn / Lippstadt

Current Time: May 4, 2016 at 11:09:08 AM

Latest Report: May 4, 2016 at 9:50 AM


Visibility: N/A

Pressure: 30.42 "Hg

Humidity: 76%

Dew Point: 39 °F

Location of DelbrückLocation

Historic Weather in Delbrück — Graph

°F

Delbrück Temperature Yesterday

Maximum temperature yesterday: 55 °F (at 5:50 PM)
Minimum temperature yesterday: 45 °F (at 9:50 AM)
Average temperature yesterday: 50 °F

High & Low Weather Summary for the Past Weeks

 TemperatureHumidityPressure
High66 °F (May 2, 3:20 PM)100% (Apr 20, 4:20 AM)30.45 "Hg (Apr 20, 4:20 AM)
Low32 °F (Apr 24, 4:20 PM)28% (May 2, 2:50 PM)29.45 "Hg (Apr 26, 10:50 AM)
Average44 °F77%30.01 "Hg
* Reported Apr 19 9:50 AM — May 4 9:50 AM, Delbrück, Weather by CustomWeather, © 2016

Note: Actual official high and low records may vary slightly from our data, if they occured in-between our weather recording intervals... More about our weather records

Advertising

Delbrück Weather History for the Previous 24 Hours

Scroll right to see more
 ConditionsComfort  
Time TempWeatherWind HumidityBarometerVisibility
9:50 AM
Wed, May 4
46 °FScattered clouds.5 mph76%30.42 "HgN/A
9:20 AM46 °FScattered clouds.5 mph87%30.39 "HgN/A
8:50 AM45 °FPassing clouds.5 mph87%30.39 "HgN/A
8:20 AM45 °FPassing clouds.3 mph87%30.39 "HgN/A
7:50 AM43 °FPassing clouds.3 mph100%30.39 "HgN/A
6:50 AM39 °FScattered clouds.3 mph100%30.39 "HgN/A
6:20 AM39 °FPartly cloudy.3 mph100%30.39 "HgN/A
5:50 AM41 °FPassing clouds.1 mph93%30.36 "HgN/A
5:20 AM39 °FPassing clouds.2 mph100%30.36 "HgN/A
4:50 AM39 °FPassing clouds.1 mph100%30.36 "HgN/A
4:20 AM39 °FPassing clouds.2 mph100%30.36 "HgN/A
3:50 AM39 °FPassing clouds.2 mph100%30.36 "HgN/A
3:20 AM39 °FPassing clouds.2 mph93%30.33 "HgN/A
2:50 AM39 °FClear.3 mph93%30.33 "Hg10 mi
2:20 AM41 °FClear.5 mph87%30.33 "Hg10 mi
1:50 AM39 °FClear.3 mph93%30.33 "Hg10 mi
12:50 AM43 °FClear.2 mph81%30.33 "Hg10 mi
12:20 AM45 °FClear.2 mph71%30.33 "Hg10 mi
11:50 PM
Tue, May 3
45 °FClear.2 mph71%30.33 "Hg10 mi
11:20 PM45 °FPassing clouds.6 mph76%30.30 "HgN/A
10:50 PM46 °FPassing clouds.3 mph71%30.30 "HgN/A
10:20 PM48 °FPassing clouds.6 mph66%30.30 "HgN/A
9:50 PM50 °FPassing clouds.6 mph58%30.27 "HgN/A
9:20 PM50 °FPassing clouds.5 mph58%30.27 "HgN/A
8:50 PM50 °FPassing clouds.6 mph58%30.24 "HgN/A
8:20 PM52 °FPassing clouds.7 mph54%30.24 "HgN/A
7:50 PM54 °FPassing clouds.10 mph47%30.21 "HgN/A
7:20 PM54 °FPassing clouds.10 mph47%30.21 "HgN/A
6:50 PM55 °FPassing clouds.10 mph44%30.18 "HgN/A
6:20 PM55 °FScattered clouds.7 mph51%30.18 "HgN/A
5:50 PM55 °FScattered clouds.7 mph55%30.18 "HgN/A
5:20 PM54 °FScattered clouds.8 mph51%30.18 "HgN/A
4:50 PM54 °FScattered showers. Scattered clouds.12 mph54%30.18 "HgN/A
4:20 PM54 °FScattered showers. Scattered clouds.10 mph51%30.18 "HgN/A
3:50 PM54 °FScattered showers. Scattered clouds.12 mph54%30.18 "HgN/A
3:20 PM52 °FScattered showers. Broken clouds.9 mph72%30.15 "HgN/A
2:50 PM54 °FScattered clouds.8 mph72%30.15 "HgN/A
2:20 PM52 °FScattered showers. Scattered clouds.7 mph62%30.15 "HgN/A
1:50 PM54 °FScattered clouds.10 mph72%30.15 "HgN/A
1:20 PM52 °FScattered clouds.10 mph77%30.15 "HgN/A
12:50 PM50 °FBroken clouds.8 mph100%30.15 "HgN/A
12:20 PM48 °FBroken clouds.6 mph100%30.15 "HgN/A
11:50 AM48 °FBroken clouds.6 mph100%30.15 "Hg6 mi
11:20 AM46 °FLight rain. Broken clouds.5 mph100%30.15 "Hg5 mi
Weather by CustomWeather, © 2016

See weather overviewHow to use our weather pages